Weather History for K08D - March, 2013

Change the Weather History Date:

Thursday, March 7, 2013

  Actual Average (KMOT) Record (KMOT)
Temperature  
Mean Temperature 18 °F 24 °F  
Max Temperature 26 °F 32 °F 59 °F (1968)
Min Temperature 10 °F 16 °F -19 °F (1932)
Degree Days  
Heating Degree Days 47 41  
Month to date heating degree days 295  
Since 1 July heating degree days 6871  
Cooling Degree Days 0 0  
Month to date cooling degree days 0  
Year to date cooling degree days 0  
Moisture  
Dew Point 16 °F    
Average Humidity 96    
Maximum Humidity 100    
Minimum Humidity 92    
Precipitation  
Precipitation 0.00 in 0.02 in 0.52 in (1988)
Month to date precipitation 0.13  
Year to date precipitation 1.04  
Sea Level Pressure  
Sea Level Pressure 30.00 in    
Wind  
Wind Speed 11 mph (SSE)    
Max Wind Speed 16 mph    
Max Gust Speed 21 mph    
Visibility 9 miles    
Events      
T = Trace of Precipitation, MM = Missing Value Source: NWS Daily Summary

Daily Weather History Graph

Daily Weather History Graph

Search for Another Location

Airport or City:

Trip Planner

Search our weather history database for the weather conditions in past years. The results will help you decide how hot, cold, wet, or windy it might be!

Date:

Astronomy

Mar. 07, 2013 Rise Set
Actual Time 7:18 AM CST 6:43 PM CST
Civil Twilight 6:47 AM CST 7:14 PM CST
Nautical Twilight 6:11 AM CST 7:50 PM CST
Astronomical Twilight 5:34 AM CST 8:27 PM CST
Moon 4:36 AM CST (3/7) 2:17 PM CST (3/7)
Length of Visible Light 12h 27m
Length of Day
11h 25m
Waning Crescent, 20% of the Moon is Illuminated
Mar 7
Waning Crescent
Mar 11
New
Mar 19
First Quarter
Mar 27
Full
Apr 2
Last Quarter

Hourly Weather History & Observations

Time (CST) Temp. Windchill Dew Point Humidity Pressure Visibility Wind Dir Wind Speed Gust Speed Precip Events Conditions
12:15 AM 10.4 °F -4.8 °F 8.6 °F 92% 30.01 in 10.0 mi ESE 12.7 mph - N/A   Overcast
12:35 AM 10.4 °F -3.3 °F 8.6 °F 92% 30.01 in 10.0 mi SE 10.4 mph - N/A   Overcast
12:55 AM 10.4 °F -4.8 °F 8.6 °F 92% 29.99 in 10.0 mi ESE 12.7 mph - N/A   Mostly Cloudy
1:15 AM 10.4 °F -2.4 °F 8.6 °F 92% 30.00 in 10.0 mi SE 9.2 mph - N/A   Mostly Cloudy
1:35 AM 10.4 °F -4.8 °F 8.6 °F 92% 29.99 in 10.0 mi ESE 12.7 mph - N/A   Overcast
1:55 AM 10.4 °F -5.4 °F 8.6 °F 92% 29.99 in 10.0 mi ESE 13.8 mph 19.6 mph N/A   Overcast
2:15 AM 10.4 °F -4.8 °F 8.6 °F 92% 29.98 in 10.0 mi ESE 12.7 mph - N/A   Overcast
2:35 AM 10.4 °F -3.3 °F 8.6 °F 92% 29.99 in 10.0 mi ESE 10.4 mph - N/A   Overcast
2:55 AM 10.4 °F -4.1 °F 8.6 °F 92% 29.98 in 10.0 mi SE 11.5 mph - N/A   Overcast
3:15 AM 10.4 °F -6.0 °F 10.4 °F 100% 29.97 in 10.0 mi ESE 15.0 mph - N/A   Overcast
3:35 AM 12.2 °F -3.7 °F 10.4 °F 92% 29.96 in 10.0 mi ESE 15.0 mph - N/A   Overcast
3:55 AM 12.2 °F -3.7 °F 10.4 °F 92% 29.96 in 9.0 mi ESE 15.0 mph - N/A   Overcast
4:15 AM 12.2 °F -3.1 °F 10.4 °F 92% 29.96 in 5.0 mi ESE 13.8 mph 20.7 mph N/A   Overcast
4:35 AM 12.2 °F -3.1 °F 10.4 °F 92% 29.95 in 5.0 mi ESE 13.8 mph 18.4 mph N/A   Overcast
4:55 AM 14.0 °F -0.2 °F 12.2 °F 93% 29.95 in 4.0 mi ESE 12.7 mph 18.4 mph N/A   Overcast
5:15 AM 14.0 °F -0.8 °F 12.2 °F 93% 29.95 in 5.0 mi ESE 13.8 mph - N/A   Overcast
5:35 AM 14.0 °F -1.4 °F 14.0 °F 100% 29.95 in 9.0 mi ESE 15.0 mph 19.6 mph N/A   Overcast
6:15 AM 14.0 °F -0.8 °F 14.0 °F 100% 29.96 in 7.0 mi SE 13.8 mph - N/A   Overcast
6:35 AM 14.0 °F -0.2 °F 14.0 °F 100% 29.96 in 5.0 mi SE 12.7 mph - N/A   Overcast
6:55 AM 14.0 °F -0.2 °F 14.0 °F 100% 29.96 in 4.0 mi SE 12.7 mph - N/A   Overcast
7:15 AM 14.0 °F -0.2 °F 14.0 °F 100% 29.95 in 5.0 mi ESE 12.7 mph - N/A   Overcast
7:35 AM 15.8 °F 2.7 °F 14.0 °F 93% 29.95 in 6.0 mi SE 11.5 mph 18.4 mph N/A   Overcast
7:55 AM 15.8 °F 0.9 °F 15.8 °F 100% 29.95 in 4.0 mi SE 15.0 mph - N/A   Overcast
8:15 AM 15.8 °F 1.4 °F 14.0 °F 93% 29.95 in 7.0 mi ESE 13.8 mph - N/A   Overcast
8:35 AM 15.8 °F 0.3 °F 14.0 °F 93% 29.95 in 9.0 mi SE 16.1 mph - N/A   Overcast
8:55 AM 15.8 °F 1.4 °F 14.0 °F 93% 29.97 in 9.0 mi SE 13.8 mph - N/A   Overcast
9:15 AM 15.8 °F 2.7 °F 14.0 °F 93% 29.97 in 10.0 mi SE 11.5 mph - N/A   Overcast
9:35 AM 15.8 °F 2.7 °F 14.0 °F 93% 29.97 in 10.0 mi SE 11.5 mph - N/A   Overcast
9:55 AM 15.8 °F 0.9 °F 15.8 °F 100% 29.97 in 10.0 mi SE 15.0 mph - N/A   Overcast
10:15 AM 15.8 °F 5.1 °F 15.8 °F 100% 29.97 in 10.0 mi SE 8.1 mph - N/A   Overcast
10:35 AM 17.6 °F 6.4 °F 15.8 °F 93% 29.97 in 9.0 mi SE 9.2 mph - N/A   Overcast
10:55 AM 17.6 °F 5.7 °F 15.8 °F 93% 29.98 in 4.0 mi SSE 10.4 mph - N/A   Overcast
11:15 AM 17.6 °F 5.7 °F 17.6 °F 100% 29.97 in - SSE 10.4 mph - N/A   Overcast
11:35 AM 17.6 °F 6.4 °F 17.6 °F 100% 29.96 in - SSE 9.2 mph - N/A   Overcast
11:55 AM 17.6 °F 6.4 °F 17.6 °F 100% 29.97 in - SSE 9.2 mph - N/A   Overcast
12:15 PM 19.4 °F 8.6 °F 19.4 °F 100% 29.98 in - SSE 9.2 mph - N/A   Overcast
12:35 PM 19.4 °F 9.5 °F 19.4 °F 100% 29.98 in - SSE 8.1 mph - N/A   Overcast
12:55 PM 19.4 °F 7.9 °F 19.4 °F 100% 29.99 in - South 10.4 mph - N/A   Overcast
1:15 PM 21.2 °F 11.7 °F 21.2 °F 100% 29.98 in - SSE 8.1 mph - N/A   Overcast
1:35 PM 21.2 °F 12.6 °F 21.2 °F 100% 29.98 in - South 6.9 mph - N/A   Overcast
1:55 PM 23.0 °F 13.1 °F 21.2 °F 93% 29.97 in - SSE 9.2 mph - N/A   Overcast
2:15 PM 23.0 °F 12.4 °F 23.0 °F 100% 29.98 in - South 10.4 mph - N/A   Overcast
2:35 PM 23.0 °F 13.9 °F 23.0 °F 100% 29.98 in 10.0 mi South 8.1 mph - N/A   Overcast
2:55 PM 24.8 °F 16.1 °F 23.0 °F 93% 29.99 in 10.0 mi SSW 8.1 mph - N/A   Overcast
3:15 PM 24.8 °F 16.1 °F 23.0 °F 93% 29.99 in 10.0 mi SSW 8.1 mph - N/A   Overcast
3:35 PM 24.8 °F 15.3 °F 24.8 °F 100% 29.98 in 10.0 mi SSW 9.2 mph - N/A   Overcast
3:55 PM 26.6 °F 19.1 °F 24.8 °F 93% 29.99 in 10.0 mi SW 6.9 mph - N/A   Overcast
4:15 PM 26.6 °F 18.2 °F 24.8 °F 93% 30.00 in 10.0 mi SW 8.1 mph - N/A   Overcast
4:35 PM 26.6 °F 17.5 °F 24.8 °F 93% 30.00 in 10.0 mi SSW 9.2 mph - N/A   Overcast
4:55 PM 26.6 °F 16.8 °F 24.8 °F 93% 30.01 in 10.0 mi SW 10.4 mph - N/A   Overcast
5:15 PM 26.6 °F 17.5 °F 24.8 °F 93% 30.01 in 10.0 mi SW 9.2 mph - N/A   Overcast
5:35 PM 26.6 °F 18.2 °F 24.8 °F 93% 30.00 in 10.0 mi SW 8.1 mph - N/A   Overcast
5:55 PM 26.6 °F 17.5 °F 24.8 °F 93% 30.01 in 10.0 mi West 9.2 mph - N/A   Overcast
7:35 PM 17.6 °F 6.4 °F 17.6 °F 100% 30.05 in 10.0 mi West 9.2 mph - N/A   Clear
7:55 PM 15.8 °F 4.2 °F 14.0 °F 93% 30.05 in 10.0 mi West 9.2 mph - N/A   Clear
8:15 PM 15.8 °F 3.4 °F 15.8 °F 100% 30.05 in 10.0 mi West 10.4 mph - N/A   Clear
8:35 PM 15.8 °F 2.7 °F 15.8 °F 100% 30.05 in 10.0 mi West 11.5 mph - N/A   Clear
8:55 PM 15.8 °F 4.2 °F 15.8 °F 100% 30.06 in 10.0 mi West 9.2 mph - N/A   Clear
9:15 PM 12.2 °F 6.1 °F 10.4 °F 92% 30.07 in 10.0 mi WSW 3.5 mph - N/A   Clear
9:35 PM 12.2 °F -0.2 °F 10.4 °F 92% 30.07 in 10.0 mi WSW 9.2 mph - N/A   Clear
9:55 PM 10.4 °F -2.4 °F 10.4 °F 100% 30.08 in 10.0 mi West 9.2 mph - N/A   Clear
10:15 PM 12.2 °F 1.7 °F 12.2 °F 100% 30.08 in 10.0 mi West 6.9 mph - N/A   Scattered Clouds
10:35 PM 15.8 °F 8.6 °F 15.8 °F 100% 30.08 in 10.0 mi West 4.6 mph - N/A   Overcast
10:55 PM 17.6 °F 10.7 °F 17.6 °F 100% 30.09 in 10.0 mi WSW 4.6 mph - N/A   Overcast
11:15 PM 19.4 °F 10.4 °F 19.4 °F 100% 30.08 in 10.0 mi WSW 6.9 mph - N/A   Overcast
11:35 PM 21.2 °F 13.6 °F 21.2 °F 100% 30.08 in 10.0 mi WSW 5.8 mph - N/A   Overcast
11:55 PM 21.2 °F 11.7 °F 21.2 °F 100% 30.07 in 10.0 mi WSW 8.1 mph - N/A   Overcast